Regional Weather Roundup
Issued by NWS Jackson, KY

Home | Current Version | Previous Version | Graphics & Text | Print | Product List | Glossary On
Versions: 1 2 3 4 5 6 7 8 9 10 11 12 13 14 15 16 17 18 19 20 21 22 23 24 25 26 27 28 29 30 31 32 33 34 35 36 37 38 39 40 41 42 43 44 45 46 47
000
ASUS43 KJKL 062310
RWRJKL

EAST KENTUCKY HOURLY WEATHER ROUNDUP
NATIONAL WEATHER SERVICE JACKSON KY
700 PM EDT MON JUL 06 2015

NOTE: "FAIR" INDICATES FEW OR NO CLOUDS BELOW 12,000 FEET WITH
NO SIGNIFICANT WEATHER AND/OR OBSTRUCTIONS TO VISIBILITY.

* THESE REPORTS ARE NOT UNDER NWS QUALITY CONTROL AND MAY NOT
  REPORT WEATHER SUCH AS PRECIPITATION AND FOG.

KYZ079-080-083-085-087-088-110-112-115-119-120-070000
...EASTERN KENTUCKY...

CITY           SKY/WX    TMP DP  RH WIND       PRES   REMARKS
JACKSON        SUNNY     79  68  69 CALM      30.08F
LONDON         SUNNY     83  63  50 SW9       30.08F
SOMERSET*      SUNNY     81  64  57 SW7       30.08S
MONTICELLO*    MOSUNNY   84  71  65 W5        30.10F
MIDDLESBORO*   SUNNY     83  67  59 CALM      30.09F
HARLAN APT*      N/A     81  63  54 CALM      30.11F
HAZARD APT*    CLEAR     81  66  61 SW6       30.08F
BLACK MTN*       N/A     68  63  83 S1          N/A
PIKEVILLE APT* SUNNY     77  68  73 CALM      30.10F
BIG SANDY*     PTCLDY    80  69  69 SW3       30.09S
MOREHEAD APT*  PTCLDY    81  68  65 S5        30.07S
$$

KYZ035-036-041-042-044-050-067-078-099-070000
...CENTRAL KENTUCKY...

CITY           SKY/WX    TMP DP  RH WIND       PRES   REMARKS
MT STERLING*   SUNNY     81  68  65 W9        30.06S
FLEMING/MASON* SUNNY     82  68  61 CALM      30.05S
RICHMOND*      SUNNY     82  66  57 SW6       30.06S
LEXINGTON      SUNNY     82  67  60 SW9       30.04F
FRANKFORT      SUNNY     83  67  58 SW7       30.02F
$$

KYZ091>093-OHZ055-061-077-WVZ005-015-034-035-042-070000
...SOUTHERN OHIO/WEST VIRGINIA...

CITY           SKY/WX    TMP DP  RH WIND       PRES   REMARKS
COVINGTON      MOSUNNY   82  69  64 S6        30.01F HAZE
COLUMBUS       MOSUNNY   81  60  48 SW9       30.01S
DAYTON         MOSUNNY   83  65  54 S10       30.01F
WILMINGTON     SUNNY     81  63  54 S6        30.02F
HUNTINGTON     MOSUNNY   80  65  59 SW6       30.04S
CHARLESTON     PTSUNNY   79  67  66 S9        30.06S
PINEVILLE*     SUNNY     76  69  78 MISG      30.17F
BECKLEY        PTSUNNY   72  63  73 W8        30.16S
BLUEFIELD      MOSUNNY   73  63  70 W8        30.18F
$$

VAZ002-007-008-TNZ017-027-036-066-071-070000
...SOUTHWEST VIRGINIA/EAST TENNESSEE...

CITY           SKY/WX    TMP DP  RH WIND       PRES   REMARKS
WISE*          MOSUNNY   77  61  57 SW5       30.19R
JONESVILLE*      N/A    N/A N/A N/A MISG        N/A
ABINGDON*      MOSUNNY   78  65  64 N3        30.15F
BRISTOL        MOSUNNY   80  63  55 W6        30.12S
KNOXVILLE      MOSUNNY   83  67  58 SW10      30.08F
OAK RIDGE      SUNNY     83  68  60 VRB3      30.09F
CROSSVILLE     SUNNY     79  65  62 SW5       30.14F
NASHVILLE      PTSUNNY   85  71  63 S9        30.06F HX  90
$$

...KEY TO REMARKS...
VSB - VISIBILITY IN MILES
WCI - WIND CHILL INDEX
HX  - HEAT INDEX

$$



USA.gov is the U.S. government's official web portal to all federal, state and local government web resources and services.